RH
22 24 28 31 34 33 31 29 28 29 32 35 35 33 32 30 25 20 20 22 21 22 15 11 13 14 15 15 18 18 17 16 16 17 14 16 13 17 17 16 22 31 22 26 36
23 24 27 29 33 34 32 29 27 28 30 33 35 35 32 30 29 25 25 24 21 21 18 14 14 15 21 25 26 23 21 16 14 14 15 15 14 15 16 15 16 19 24 20 28
24 24 28 30 31 35 34 31 27 26 27 30 34 35 33 31 32 28 25 23 21 20 22 16 14 17 20 23 24 25 20 17 17 17 20 16 16 18 16 16 14 14 16 27 37
26 26 28 29 30 32 34 32 28 25 24 26 31 32 32 32 30 30 27 20 17 18 20 16 18 22 20 18 24 19 20 19 24 30 21 18 20 17 18 14 14 15 16 37 40
28 30 29 30 31 31 32 32 30 26 23 23 28 32 32 33 33 30 24 15 13 16 19 16 22 22 18 18 24 19 20 25 26 24 20 20 18 15 18 17 17 16 15 29 46
32 34 34 33 33 32 32 33 31 26 23 22 26 31 32 32 31 28 17 12 12 14 18 17 19 18 21 23 22 24 22 22 26 22 24 24 22 27 19 20 21 20 21 32 39
38 39 39 37 34 33 32 32 30 27 23 21 25 30 32 33 30 25 14 12 12 14 18 19 20 21 24 25 27 26 23 23 23 22 22 27 24 26 20 21 22 21 22 29 21
43 43 42 40 37 34 32 32 31 28 24 22 25 29 35 32 31 22 15 14 14 14 18 22 24 22 28 31 29 25 28 26 26 26 26 27 21 18 20 23 21 21 21 20 21
48 46 43 41 39 35 33 33 32 29 26 26 30 31 38 35 33 24 26 17 19 19 23 27 26 32 31 28 31 31 27 29 28 27 27 27 23 19 23 26 20 19 20 22 23
48 45 42 41 38 36 34 34 32 30 32 37 40 36 35 31 29 25 36 21 22 25 28 32 35 28 31 27 37 27 28 30 27 28 30 30 27 19 21 24 21 19 19 20 23
46 44 41 39 36 34 33 35 34 35 47 45 37 34 37 31 31 32 35 28 24 30 29 41 30 30 21 24 29 30 30 30 28 32 33 28 27 23 20 24 25 22 21 21 21
44 40 38 37 35 33 34 38 31 34 38 33 41 46 46 46 46 40 37 30 29 28 38 36 34 24 31 34 35 35 32 31 31 34 34 29 31 24 20 20 21 22 21 21 23
37 35 34 34 34 34 38 40 38 37 46 41 45 45 44 45 49 46 36 34 32 32 35 28 30 39 35 38 35 33 31 32 32 34 37 35 24 23 20 23 23 23 22 21 24
39 34 34 33 34 35 49 44 44 43 41 56 52 56 49 45 40 44 40 39 42 33 37 33 36 37 37 36 32 37 31 33 38 36 42 34 35 21 19 20 19 18 19 22 24
48 43 42 43 38 44 46 49 53 34 70 38 55 48 45 40 48 52 46 44 41 40 40 37 45 42 40 35 33 39 38 39 43 44 46 39 46 20 24 21 17 14 20 22 25
74 58 59 57 50 49 54 56 46 42 60 47 54 48 41 42 52 54 52 45 46 44 45 44 45 38 38 45 42 44 41 47 54 50 71 33 32 25 20 18 18 18 19 23 21
86 78 80 71 53 50 54 70 59 66 30 34 57 49 38 39 52 46 49 49 46 60 49 48 47 42 41 42 43 40 39 71 82 88 57 45 42 26 22 21 22 20 22 27 22
100 93 90 75 64 56 64 61 66 35 29 52 55 51 46 38 38 54 52 47 48 42 48 56 84 48 39 37 38 42 40 61 94 50 39 51 47 26 25 26 27 32 34 26 26
100 100 91 78 70 72 80 80 52 40 36 58 55 52 52 49 42 52 48 43 37 42 40 46 45 49 44 41 39 46 53 40 46 45 54 32 29 26 25 26 26 30 32 33 32
100 100 91 80 77 94 86 54 56 48 50 56 45 44 44 54 48 48 48 37 39 42 36 36 39 55 49 43 42 43 38 54 52 78 42 29 35 33 25 29 32 32 36 37 35
100 99 96 88 87 100 90 61 53 57 56 54 55 54 46 56 47 48 43 40 40 49 43 36 38 57 50 52 46 49 47 48 49 56 72 33 22 28 33 35 37 37 41 44 46
100 99 100 100 98 97 91 64 54 52 59 56 61 60 52 51 55 51 46 41 52 49 49 41 43 53 46 50 46 44 39 38 48 47 56 55 40 31 33 47 48 49 60 61 61
100 99 100 100 98 97 79 73 63 56 56 61 57 57 59 60 61 54 52 77 76 56 51 47 50 56 63 60 54 54 48 41 41 44 44 55 35 31 52 53 57 62 60 61 66
99 100 99 100 99 96 92 93 88 95 66 71 66 66 66 70 58 54 64 87 88 87 93 79 58 43 36 30 47 59 56 49 44 53 47 42 36 29 66 64 58 58 61 58 61
99 100 100 100 99 100 100 100 100 100 98 97 97 88 84 75 62 66 58 83 91 90 87 82 97 63 58 62 63 63 58 55 55 50 55 40 41 81 68 53 54 62 59 61 62
98 99 99 98 99 100 99 100 100 100 100 100 98 100 100 100 100 100 100 90 94 82 94 94 94 90 82 61 65 75 65 66 69 64 62 57 61 75 55 47 46 66 58 62 68
99 99 95 99 100 96 100 100 100 98 100 100 100 98 99 100 99 99 99 99 99 100 100 100 99 97 90 77 93 85 69 62 62 80 90 94 94 52 38 49 56 67 60 69 72
Wind_Speed
7 6 5 3 2 3 4 5 5 6 6 5 5 4 3 2 2 3 4 3 3 3 2 3 4 4 4 3 2 4 4 4 2 5 3 7 7 4 4 4 7 8 4 4 9
9 8 7 5 4 4 5 6 6 6 6 6 5 4 3 2 4 7 5 3 3 4 3 5 6 6 3 2 1 3 3 2 1 1 1 9 7 7 5 8 8 9 11 9 10
11 10 8 7 7 6 5 6 7 7 7 6 5 5 4 2 3 4 6 4 4 4 5 6 7 7 4 3 2 2 3 1 1 2 1 6 5 5 5 7 10 10 11 13 12
12 11 10 9 8 8 7 7 8 8 9 8 5 5 4 2 1 3 3 3 4 4 6 7 8 5 4 5 3 3 1 2 2 3 3 4 3 4 11 7 6 6 11 13 16
14 12 11 11 10 9 9 9 8 9 9 8 6 6 4 2 3 4 3 2 3 4 6 8 8 5 4 4 5 4 4 3 3 4 3 3 6 7 13 13 13 13 11 13 16
15 13 12 12 11 10 10 9 9 9 10 9 7 6 4 3 4 4 3 2 3 4 5 7 5 6 4 3 4 3 4 3 4 4 4 4 4 2 6 8 13 17 16 14 17
16 14 13 13 12 11 10 10 9 9 9 9 8 7 7 7 5 4 3 2 2 4 5 6 6 3 6 5 4 4 2 2 7 5 4 3 8 10 12 12 11 13 17 19 21
16 15 14 14 13 12 11 10 10 9 9 7 7 7 4 5 5 4 3 2 2 3 5 6 6 4 2 6 3 3 2 4 4 5 2 3 11 6 8 11 13 14 18 23 25
17 16 15 14 13 13 12 11 10 10 10 8 7 4 3 5 7 6 4 3 4 3 4 6 6 3 4 3 2 3 4 6 2 4 1 7 7 1 6 8 12 14 16 20 21
19 17 15 14 14 13 11 10 10 10 10 9 10 3 8 7 8 8 4 4 3 5 4 2 2 3 3 6 5 4 5 4 6 2 4 8 17 14 9 8 14 16 17 19 22
21 18 16 14 13 12 9 7 6 5 11 7 4 3 8 9 9 8 7 6 6 4 4 1 5 10 10 10 3 1 2 5 2 2 3 10 15 19 18 16 22 26 25 27 29
22 20 17 14 12 10 9 6 6 3 4 14 15 11 7 9 4 9 10 8 7 6 5 3 10 7 2 6 7 5 7 9 3 1 3 11 18 19 21 18 22 21 20 23 24
22 20 17 15 12 10 8 8 6 3 3 4 8 8 7 10 5 8 12 7 4 8 11 11 1 3 7 6 8 7 10 6 4 2 2 10 14 8 2 5 11 16 18 19 19
23 21 18 14 11 11 9 8 5 2 2 4 5 5 7 7 4 8 13 5 3 8 7 8 2 5 6 6 8 10 7 5 4 3 5 4 9 13 7 11 12 15 14 17 18
23 22 19 17 9 15 11 10 7 3 4 4 4 6 8 6 7 4 9 4 5 6 5 3 6 6 6 4 8 1 3 4 2 3 4 5 5 6 2 13 16 17 2 8 9
24 22 20 18 15 14 14 11 8 2 8 3 4 6 6 4 4 6 4 4 4 4 2 2 1 3 1 4 3 11 5 4 4 1 4 8 10 16 8 9 4 3 4 12 12
27 23 22 18 19 17 16 13 3 5 2 6 4 5 6 7 6 7 8 9 6 6 9 3 5 3 4 5 5 3 5 2 3 3 5 4 6 15 18 14 10 14 10 11 13
29 24 23 18 16 20 20 3 7 3 5 3 3 4 5 7 4 7 8 8 8 4 3 6 4 11 8 4 5 9 4 4 4 3 2 2 7 5 9 17 10 9 11 13 10
33 29 24 20 19 21 17 7 8 7 4 8 4 5 6 4 3 5 9 5 11 16 10 7 3 2 1 1 2 6 8 1 4 2 4 7 8 10 13 13 12 17 17 17 13
42 34 29 23 19 20 8 10 7 6 5 4 9 7 7 8 9 9 10 5 4 15 3 5 3 1 3 3 2 3 5 3 2 4 8 5 5 6 4 9 11 16 18 19 21
29 15 24 25 24 15 10 8 7 8 9 6 6 3 3 5 8 6 4 2 2 4 7 6 4 3 4 10 11 5 4 2 2 3 4 8 3 2 5 10 11 15 18 20 20
9 3 21 27 10 5 10 11 11 11 8 3 3 4 6 7 7 7 8 3 2 8 9 7 2 5 6 1 3 3 6 12 6 7 5 4 8 6 11 14 16 14 18 20 21
4 4 18 25 7 7 4 11 16 12 8 8 10 7 6 6 4 7 6 3 6 1 5 8 5 4 4 1 1 6 6 7 5 4 18 11 5 7 16 16 22 27 28 27 26
4 1 1 2 5 2 7 6 12 2 9 4 3 4 5 7 7 4 6 5 4 4 4 2 5 10 12 5 4 5 7 11 15 11 15 21 22 17 16 18 22 21 20 21 23
3 2 1 2 2 2 2 3 3 3 2 1 2 7 7 10 15 13 8 4 4 8 3 1 7 11 13 7 3 10 10 10 15 18 15 20 18 10 11 13 16 10 15 17 19
6 4 4 3 6 3 3 2 2 3 2 1 4 4 3 3 2 2 4 2 1 4 1 2 4 1 9 11 9 13 14 15 15 18 20 23 20 7 11 11 13 6 13 17 19
7 8 4 2 4 4 2 3 3 2 6 6 6 6 10 5 6 9 8 7 4 2 2 2 1 3 11 2 3 9 7 12 4 2 2 5 5 9 10 11 15 10 15 17 21
Wind_Direction
227 230 243 260 292 324 338 353 6 1 2 359 2 5 359 295 238 216 225 265 249 228 188 174 160 166 161 185 176 164 235 248 230 186 129 150 188 170 218 207 203 203 218 205 182
239 242 250 263 283 301 315 324 340 347 350 346 337 342 329 275 243 231 229 287 232 211 185 172 171 169 159 155 172 240 245 247 8 204 229 172 190 177 200 208 226 232 230 226 203
243 245 251 259 270 288 302 312 322 332 334 336 324 319 315 269 264 243 221 276 231 210 198 186 185 174 176 163 178 192 270 9 224 218 204 172 201 190 221 226 230 233 233 223 210
246 248 252 256 264 276 289 301 311 322 327 324 312 311 303 256 292 191 269 284 255 230 202 183 177 177 182 190 165 224 234 199 169 185 179 189 177 225 226 242 203 228 228 212 214
241 246 250 255 263 270 283 294 305 313 319 317 309 305 293 248 257 233 276 271 251 227 204 192 183 178 208 171 163 212 179 186 174 190 219 216 237 261 249 241 238 241 227 219 211
241 244 246 254 261 268 275 287 299 309 315 314 312 305 281 246 221 254 256 229 227 214 205 195 218 197 136 170 223 147 175 178 194 200 223 247 241 269 246 216 224 238 225 216 211
240 243 247 249 253 259 265 276 287 299 305 307 310 306 284 256 221 233 235 204 198 194 187 197 183 184 152 146 141 128 206 219 212 204 232 240 238 230 242 231 242 234 217 217 217
241 243 247 250 255 258 261 265 273 282 285 286 291 299 252 238 215 211 195 173 159 170 176 172 172 144 49 129 108 195 227 236 148 186 189 217 265 223 216 219 232 221 219 222 221
241 244 248 254 256 257 259 263 267 270 267 263 268 252 231 211 212 198 171 168 148 144 147 155 153 115 126 216 200 205 250 223 229 203 228 225 278 250 220 235 246 237 234 232 232
233 238 246 254 260 263 262 267 270 266 255 255 236 248 220 197 189 184 166 156 146 146 127 140 101 193 175 210 249 219 228 223 255 111 241 239 258 266 252 253 257 259 255 247 241
235 234 236 243 252 262 261 269 262 249 222 226 220 173 141 176 175 189 188 168 152 157 199 99 221 218 223 221 268 78 262 266 203 92 275 257 273 279 275 258 259 257 253 250 246
234 235 234 236 240 245 249 233 225 202 269 240 238 234 192 184 204 200 187 174 172 191 152 187 240 250 162 194 215 216 246 255 250 196 261 294 287 280 273 255 254 262 257 252 250
226 229 229 231 230 229 227 237 231 255 257 258 231 225 223 215 220 204 189 189 184 181 197 223 122 113 196 180 198 224 235 230 265 288 201 301 281 239 222 242 244 255 259 261 253
220 218 217 215 218 215 208 201 194 175 276 234 198 197 176 152 222 180 183 176 185 224 180 245 145 185 194 220 205 237 200 183 177 237 270 328 293 263 256 261 255 265 256 268 263
214 212 206 202 197 187 191 182 177 141 272 143 155 163 155 173 135 175 180 175 200 167 187 203 168 179 211 246 193 349 113 138 132 208 316 196 259 276 184 270 277 280 332 348 296
209 207 201 200 195 182 170 164 143 159 239 170 142 167 152 167 139 129 150 142 128 145 215 266 157 203 104 83 69 140 105 79 67 130 240 237 218 280 280 284 289 308 12 15 11
203 204 199 197 201 181 167 149 152 215 41 183 187 185 196 159 159 177 168 176 178 161 210 187 210 144 163 120 107 204 169 224 220 185 248 17 223 253 300 284 277 287 326 339 327
199 200 195 198 193 182 165 129 209 195 196 85 123 138 202 159 182 168 158 187 215 184 145 184 240 179 168 217 184 187 228 218 237 246 325 153 228 243 281 298 294 322 327 334 331
196 193 194 194 192 182 171 201 196 194 152 157 130 190 205 204 181 179 204 214 198 192 196 181 216 108 42 131 262 160 209 50 283 154 263 242 243 281 272 284 4 33 37 19 355
188 181 188 191 187 180 206 226 199 179 159 164 210 207 201 185 183 198 186 200 224 201 242 177 189 105 120 151 65 238 136 144 204 251 257 209 259 245 300 20 39 40 25 20 25
163 159 180 179 175 183 209 220 205 194 163 166 180 189 203 183 204 199 191 180 219 172 200 167 236 129 165 205 186 158 199 198 267 214 271 286 249 96 48 51 33 23 21 18 19
165 124 161 169 172 189 211 210 215 212 207 165 137 181 199 178 192 218 218 249 1 160 176 203 195 200 202 47 316 230 225 197 223 218 239 283 262 142 71 45 22 11 3 352 346
142 122 175 182 182 194 189 209 224 221 199 188 203 189 179 190 220 206 205 57 25 191 161 163 202 221 188 236 240 227 200 221 255 265 248 253 246 146 35 19 5 353 350 346 341
161 105 143 230 70 256 200 203 200 228 230 227 184 185 166 203 224 222 201 28 31 61 13 246 224 236 249 309 107 191 206 216 220 242 260 247 267 268 2 357 356 360 358 354 351
133 100 179 152 91 86 40 35 116 148 46 125 185 228 216 223 223 227 220 150 50 358 33 357 252 254 272 283 265 270 250 211 218 233 240 269 273 45 5 346 344 353 0 1 356
127 139 93 83 86 83 98 86 78 114 43 85 114 82 140 128 2 113 122 153 158 48 64 351 266 328 269 270 262 269 260 250 252 255 259 268 267 2 343 334 343 326 355 354 351
159 145 138 117 113 113 56 86 77 109 42 55 109 97 76 89 91 79 67 79 104 91 84 346 334 182 266 324 18 278 257 234 217 67 284 255 29 341 339 324 321 317 346 344 337